| time (UTC) | temp F | wind direction | speed knots | gust knots | rain 1hr in | rain 24hr in | rain mn in | humidity % | barometer mb |
| 20260905193027 | 55 | 261 | 1.7 | 1.7 | 0.00 | 0.00 | 0.00 | 95 | |
| 20260905191131 | 59 | 291 | 0.0 | 0.0 | 0.00 | 0.00 | 0.00 | 78 | |
| 20260905184745 | 60 | 70 | 0.0 | 0.0 | 0.00 | 0.00 | 0.00 | 75 | -123.6 |
| 20260905182738 | 61 | 53 | 0.0 | 0.0 | 0.00 | 0.00 | 0.00 | 73 | 1016.3 |
| 20260905180729 | 64 | 326 | 3.5 | 3.5 | 0.00 | 0.00 | 0.00 | 63 | 1016.5 |
| 20260905174710 | 64 | 58 | 1.7 | 1.7 | 0.00 | 0.00 | 0.00 | 63 | 1015.9 |
| 20260905172636 | 64 | 175 | 1.7 | 1.7 | 0.00 | 0.00 | 0.00 | 64 | 1015.7 |
| 20260905170627 | 64 | 232 | 0.0 | 0.0 | 0.00 | 0.00 | 0.00 | 63 | 1015.4 |
| 20260905164512 | 65 | 38 | 0.0 | 0.0 | 0.00 | 0.00 | 0.00 | 62 | 1015.3 |
| 20260905162501 | 65 | 245 | 0.0 | 0.0 | 0.00 | 0.00 | 0.00 | 61 | 1015.3 |
| 20260905160416 | 67 | 104 | 3.5 | 3.5 | 0.00 | 0.00 | 0.00 | 57 | 1015.1 |
| 20260905154340 | 67 | 30 | 3.5 | 4.3 | 0.00 | 0.00 | 0.00 | 55 | 1015.1 |
| 20260905150321 | 68 | 43 | 3.5 | 3.5 | 0.00 | 0.00 | 0.00 | 57 | 1014.6 |
| 20260905144314 | 68 | 359 | 0.0 | 0.0 | 0.00 | 0.00 | 0.00 | 54 | 1014.8 |
| 20260905142101 | 69 | 326 | 2.6 | 3.5 | 0.00 | 0.05 | 0.00 | 53 | 1014.7 |
| 20260905140051 | 70 | 217 | 2.6 | 3.5 | 0.00 | 0.05 | 0.00 | 53 | 1014.8 |
| 20260905125932 | 67 | 279 | 1.7 | 1.7 | 0.00 | 0.05 | 0.00 | 59 | 1014.9 |
| 20260905123922 | 69 | 5 | 6.1 | 6.1 | 0.00 | 0.05 | 0.00 | 57 | 1014.8 |
| 20260905121910 | 68 | 13 | 1.7 | 1.7 | 0.00 | 0.05 | 0.00 | 58 | 1014.9 |
| 20260905115908 | 67 | 78 | 2.6 | 2.6 | 0.00 | 0.05 | 0.00 | 60 | 1014.9 |
| 20260905113859 | 67 | 167 | 6.1 | 7.0 | 0.00 | 0.05 | 0.00 | 59 | 1014.7 |
| 20260905111840 | 69 | 114 | 6.1 | 6.1 | 0.00 | 0.05 | 0.00 | 56 | 1014.5 |
| 20260905105806 | 66 | 39 | 1.7 | 1.7 | 0.00 | 0.05 | 0.00 | 63 | 1014.6 |
| 20260905103755 | 68 | 295 | 1.7 | 1.7 | 0.00 | 0.05 | 0.00 | 60 | 1014.3 |
| 20260905101750 | 68 | 180 | 5.2 | 6.1 | 0.00 | 0.05 | 0.00 | 61 | 1014.3 |
| 20260905095739 | 67 | 32 | 2.6 | 2.6 | 0.00 | 0.05 | 0.00 | 63 | 1014.3 |
| 20260905093729 | 67 | 269 | 6.1 | 7.8 | 0.00 | 0.05 | 0.00 | 64 | 1014.2 |
| 20260905091729 | 65 | 278 | 6.1 | 9.6 | 0.00 | 0.05 | 0.00 | 69 | 1014.3 |
| 20260905085717 | 64 | 260 | 2.6 | 2.6 | 0.00 | 0.05 | 0.00 | 73 | 1014.3 |
| 20260905083708 | 64 | 266 | 0.0 | 0.0 | 0.00 | 0.05 | 0.00 | 74 | 1014.2 |
| 20260905081658 | 64 | 169 | 4.3 | 4.3 | 0.00 | 0.05 | 0.00 | 73 | 1013.9 |
| 20260905075601 | 63 | 297 | 0.0 | 0.0 | 0.00 | 0.05 | 0.00 | 79 | 1013.9 |
| 20260905073526 | 63 | 18 | 3.5 | 3.5 | 0.00 | 0.05 | 0.00 | 79 | 1013.6 |
| 20260905071517 | 61 | 240 | 3.5 | 3.5 | 0.00 | 0.05 | 0.00 | 85 | 1013.5 |
| 20260905065455 | 60 | 180 | 1.7 | 1.7 | 0.00 | 0.05 | 0.00 | 88 | 1013.3 |
| 20260905063445 | 60 | 238 | 2.6 | 2.6 | 0.00 | 0.05 | 0.00 | 90 | 1013.0 |
| 20260905061421 | 60 | 265 | 1.7 | 1.7 | 0.00 | 0.05 | 0.00 | 92 | 1012.8 |
| 20260905055349 | 59 | 132 | 0.0 | 0.0 | 0.00 | 0.05 | 0.00 | 94 | 1012.7 |
| 20260905053342 | 59 | 260 | 2.6 | 2.6 | 0.00 | 0.05 | 0.00 | 94 | 1012.4 |
| 20260905051333 | 59 | 36 | 2.6 | 2.6 | 0.00 | 0.05 | 0.00 | 94 | 1012.1 |
| 20260905045326 | 59 | 343 | 2.6 | 2.6 | 0.00 | 0.05 | 0.00 | 95 | 1011.9 |
| 20260905043316 | 59 | 106 | 0.0 | 0.0 | 0.00 | 0.05 | 0.00 | 96 | 1011.4 |
| 20260905041308 | 59 | 104 | 1.7 | 1.7 | 0.00 | 0.05 | 0.00 | 97 | 1011.2 |
| 20260905035259 | 59 | 308 | 3.5 | 4.3 | 0.00 | 0.05 | 0.00 | 98 | 1011.0 |
| 20260905033253 | 59 | 269 | 1.7 | 1.7 | 0.00 | 0.05 | 0.00 | 98 | 1010.9 |
| 20260905031246 | 59 | 13 | 0.0 | 0.0 | 0.01 | 0.05 | 0.00 | 98 | 1010.3 |
| 20260905025202 | 59 | 263 | 0.0 | 0.0 | 0.01 | 0.05 | 0.00 | 99 | 1010.7 |
| 20260905023144 | 59 | 332 | 2.6 | 2.6 | 0.01 | 0.05 | 0.00 | 99 | 1010.2 |
| 20260905021125 | 59 | 52 | 1.7 | 1.7 | 0.01 | 0.04 | 0.00 | 99 | 1010.2 |
| 20260905015112 | 59 | 69 | 2.6 | 2.6 | 0.01 | 0.03 | 0.00 | 99 | 1010.3 |
| 20260905013103 | 59 | 23 | 1.7 | 1.7 | 0.01 | 0.03 | 0.00 | 99 | 1009.8 |
| 20260905011044 | 60 | 247 | 3.5 | 3.5 | 0.00 | 0.02 | 0.00 | 99 | 1010.2 |
| 20260905005013 | 59 | 259 | 2.6 | 2.6 | 0.01 | 0.02 | 0.00 | 98 | 1009.8 |
| 20260905003001 | 59 | 174 | 5.2 | 7.0 | 0.01 | 0.01 | 0.00 | 97 | 1010.0 |
| 20260905000952 | 59 | 100 | 1.7 | 1.7 | 0.01 | 0.01 | 0.00 | 97 | 1009.3 |
| 20260904234930 | 60 | 287 | 2.6 | 2.6 | 0.01 | 0.00 | 0.00 | 95 | 1008.7 |
| 20260904232855 | 61 | 350 | 2.6 | 2.6 | 0.01 | 0.00 | 0.00 | 94 | 1008.7 |
| 20260904230821 | 61 | 222 | 2.6 | 2.6 | 0.01 | 0.00 | 0.00 | 97 | 1008.3 |
| 20260904224758 | 62 | 41 | 1.7 | 1.7 | 0.00 | 0.09 | 0.00 | 97 | 1007.9 |
| 20260904222735 | 63 | 188 | 0.0 | 0.0 | 0.00 | 0.09 | 0.00 | 97 | 1007.7 |
| 20260904220728 | 63 | 94 | 2.6 | 2.6 | 0.01 | 0.09 | 0.00 | 99 | 1007.9 |
| 20260904214718 | 64 | 49 | 1.7 | 1.7 | 0.03 | 0.09 | 0.00 | 99 | 1007.8 |
| 20260904212711 | 64 | 184 | 0.0 | 0.0 | 0.03 | 0.09 | 0.00 | 99 | 1007.8 |
| 20260904210708 | 64 | 35 | 0.0 | 0.0 | 0.05 | 0.07 | 0.00 | 99 | 1008.3 |
| 20260904204702 | 64 | 177 | 1.7 | 1.7 | 0.05 | 0.05 | 0.00 | 98 | 1007.8 |
| 20260904202654 | 66 | 13 | 5.2 | 5.2 | 0.05 | 0.05 | 0.00 | 96 | 1007.6 |